Location: Wien
(48.2082°N, 16.3738°E)
Time: 21:49:01
(UTC+02:00)

DOVE 4 - Pass Details

Date: 29 March 2019
Orbit: 589 x 801 km, 97.8° (Epoch: 15 October)

Event Time Altitude Azimuth Distance (km) Brightness Sun altitude
Rises 03:44:44 0° 8° (N) 2,908 ? -19.1°
Reaches altitude 10° 03:47:00 10° 3° (N) 1,975 ? -18.8°
Maximum altitude 03:51:06 48° 289° (WNW) 791 ? -18.2°
Enters shadow 03:52:03 39° 250° (WSW) 894 ? -18.0°
